Change the Weather History Date:

Friday, November 22, 2013

  Actual Average Record
Temperature  
Mean Temperature 34 °F -  
Max Temperature 43 °F 47 °F 60 °F (1979)
Min Temperature 25 °F 34 °F 14 °F (1985)
Degree Days  
Heating Degree Days 31    
Moisture  
Dew Point 28 °F    
Average Humidity 80    
Maximum Humidity 92    
Minimum Humidity 60    
Precipitation  
Precipitation 0.00 in - - ()
Sea Level Pressure  
Sea Level Pressure 30.59 in    
Wind  
Wind Speed 4 mph (SE)    
Max Wind Speed 8 mph    
Max Gust Speed -    
Visibility 10 miles    
Events      
Averages and records for this station are not official NWS values.
T = Trace of Precipitation, MM = Missing Value Source: NWS Daily Summary

Daily Weather History Graph

Daily Weather History Graph

Search for Another Location

Airport or City:

Trip Planner

Search our weather history database for the weather conditions in past years. The results will help you decide how hot, cold, wet, or windy it might be!

Date:

Astronomy

Nov. 22, 2013 Rise Set
Actual Time 7:31 AM PST 4:28 PM PST
Civil Twilight 6:56 AM PST 5:03 PM PST
Nautical Twilight 6:18 AM PST 5:41 PM PST
Astronomical Twilight 5:41 AM PST 6:18 PM PST
Moon 9:12 PM PST (11/22) 11:12 AM PST (11/22)
Length of Visible Light 10h 06m
Length of Day
8h 56m
Waning Gibbous, 77% of the Moon is Illuminated
Nov 22
Waning Gibbous
Nov 25
Last Quarter
Dec 2
New
Dec 9
First Quarter
Dec 17
Full

Hourly Weather History & Observations

Time (PST) Temp. Windchill Dew Point Humidity Pressure Visibility Wind Dir Wind Speed Gust Speed Precip Events Conditions
12:53 AM 26.1 °F 21.9 °F 23.0 °F 88% 30.67 in 10.0 mi SE 3.5 mph - N/A   Clear
1:53 AM 28.0 °F - 25.0 °F 88% 30.66 in 10.0 mi Calm Calm - N/A   Clear
2:53 AM 25.0 °F 19.3 °F 23.0 °F 92% 30.67 in 10.0 mi SSE 4.6 mph - N/A   Clear
3:53 AM 28.9 °F 23.9 °F 26.1 °F 89% 30.66 in 10.0 mi SSE 4.6 mph - N/A   Clear
4:53 AM 26.1 °F - 23.0 °F 88% 30.67 in 10.0 mi Calm Calm - N/A   Clear
5:53 AM 26.1 °F - 24.1 °F 92% 30.66 in 10.0 mi Calm Calm - N/A   Clear
6:53 AM 26.1 °F 21.9 °F 23.0 °F 88% 30.66 in 10.0 mi SSW 3.5 mph - N/A   Clear
7:53 AM 26.1 °F 21.9 °F 23.0 °F 88% 30.65 in 10.0 mi SSE 3.5 mph - N/A   Clear
8:53 AM 32.0 °F - 28.9 °F 88% 30.66 in 10.0 mi Calm Calm - N/A   Clear
9:53 AM 39.9 °F - 30.9 °F 70% 30.65 in 10.0 mi North - - N/A   Clear
10:53 AM 41.0 °F 35.8 °F 33.1 °F 73% 30.63 in 10.0 mi East 8.1 mph - N/A   Clear
11:53 AM 42.1 °F 37.1 °F 32.0 °F 67% 30.62 in 10.0 mi ESE 8.1 mph - N/A   Clear
12:53 PM 43.0 °F 38.8 °F 30.0 °F 60% 30.59 in 10.0 mi East 6.9 mph - N/A   Clear
1:53 PM 42.1 °F 37.1 °F 30.9 °F 65% 30.58 in 10.0 mi East 8.1 mph - N/A   Clear
2:53 PM 42.1 °F 37.1 °F 30.0 °F 62% 30.56 in 10.0 mi East 8.1 mph - N/A   Clear
3:53 PM 39.9 °F 35.8 °F 30.0 °F 68% 30.55 in 10.0 mi ESE 5.8 mph - N/A   Clear
4:53 PM 37.0 °F 33.3 °F 28.0 °F 70% 30.54 in 10.0 mi SE 4.6 mph - N/A   Clear
5:53 PM 33.1 °F 30.0 °F 28.0 °F 82% 30.55 in 10.0 mi SSE 3.5 mph - N/A   Clear
6:53 PM 30.9 °F 26.2 °F 28.0 °F 89% 30.53 in 10.0 mi South 4.6 mph - N/A   Clear
7:53 PM 30.9 °F 26.2 °F 28.0 °F 89% 30.52 in 10.0 mi SSE 4.6 mph - N/A   Clear
8:53 PM 34.0 °F 28.8 °F 30.0 °F 85% 30.50 in 10.0 mi SE 5.8 mph - N/A   Clear
9:53 PM 34.0 °F 28.8 °F 30.0 °F 85% 30.50 in 10.0 mi SE 5.8 mph - N/A   Clear
10:53 PM 36.0 °F 29.6 °F 30.9 °F 82% 30.48 in 10.0 mi SE 8.1 mph - N/A   Clear
11:53 PM 37.0 °F 33.3 °F 30.9 °F 79% 30.47 in 10.0 mi SE 4.6 mph - N/A   Clear